User: anonymous   Login
Location: Düngen
(52.0952°N, 10.0219°E)
Time: 09:28:41
(UTC+00:00)
Language:

CZ-4B R/B - Orbit

View from above orbital plane
View from above orbital plane
View from above satellite
View from above satellite

Ground track
Ground track

The orbit is defined by the following mean orbital elements,

1 32959U          26128.19910947 +.00000000 +00000-0 +49355-4 0 00000
2 32959  98.8554 198.2239 0069352  30.8803  30.1125 14.43018642    05
Epoch (UTC): 08 May 2026 04:46:43
Eccentricity: 0.0069352
inclination: 98.8554°
perigee height: 699 km
apogee height: 798 km
right ascension of ascending node: 198.2239°
argument of perigee: 30.8803°
revolutions per day: 14.43018642
mean anomaly at epoch: 30.1125°

The dashed part of the orbit path shows where the satellite is in the earth's shadow,  

DLR